User: anonymous   Login
Location: Caltech
(34.1382°N, 118.1253°W)
Time: 14:50:22
(UTC-07:00)
Language:

Iridium 14 - Orbit

View from above orbital plane
View from above orbital plane
View from above satellite
View from above satellite

Ground track
Ground track

The orbit data is extracted from the following two-line orbital elements,

1 25777U 99032A   16119.32873855  .00000237  00000-0  77397-4 0  9999
2 25777  86.3999  37.3734 0002026  82.4753  31.7214 14.34213963895219
Epoch (UTC): 28 April 2016 07:53:23
Eccentricity: 0.0002026
inclination: 86.3999°
perigee height: 776 km
apogee height: 779 km
right ascension of ascending node: 37.3734°
argument of perigee: 82.4753°
revolutions per day: 14.34213963
mean anomaly at epoch: 31.7214°
orbit number at epoch: 89521

The dashed part of the orbit path shows where the satellite is in the earth's shadow,  

DLR